User: anonymous   Login
Location: *
(24.1434°N, 56.8729°E)
Time: 14:04:02
(UTC+00:00)
Language:

Cosmos 2184 Rocket - Orbit

View from above orbital plane
View from above orbital plane
View from above satellite
View from above satellite

Ground track
Ground track

The orbit data is extracted from the following two-line orbital elements,

1 21938U 92020B   20191.89302774 +.00000004 +00000-0 -11273-4 0  9992
2 21938 082.9298 249.9004 0028101 312.7552 220.8939 13.75285397416754
Epoch (UTC): 09 July 2020 21:25:57
Eccentricity: 0.0028101
inclination: 82.9298°
perigee height: 960 km
apogee height: 1001 km
right ascension of ascending node: 249.9004°
argument of perigee: 312.7552°
revolutions per day: 13.75285397
mean anomaly at epoch: 220.8939°
orbit number at epoch: 41675

The dashed part of the orbit path shows where the satellite is in the earth's shadow,  

DLR